Regional Weather Roundup
Issued by NWS

Home | Current Version | Previous Version | Graphics & Text | Print | Product List | Glossary On
Versions: 1 2 3 4 5 6 7 8 9 10 11 12 13 14 15 16 17 18 19 20 21 22 23 24 25 26 27 28 29 30 31 32 33 34 35 36 37 38 39 40 41 42 43 44 45 46 47 48 49 50
440
ASUS45 KPSR 182110
RWRAZ

ARIZONA HOURLY REGIONAL WEATHER ROUNDUP
NATIONAL WEATHER SERVICE PHOENIX AZ
200 PM MST SUN FEB 18 2018

NOTE: FAIR INDICATES FEW OR NO CLOUDS BELOW 12,000 FEET WITH NO
SIGNIFICANT WEATHER AND/OR OBSTRUCTIONS TO VISIBILITY.

AZZ001>003-036-182200-
NORTHWEST ARIZONA

CITY           SKY/WX    TMP DP  RH WIND       PRES   REMARKS
BULLHEAD CITY  SUNNY     73  21  14 S20G30    29.76F
KINGMAN        SUNNY     64  25  22 S28G36    29.81F
$$

AZZ004>008-015-016-018-182200-
NORTH CENTRAL ARIZONA

CITY           SKY/WX    TMP DP  RH WIND       PRES   REMARKS
GRAND CANYON   SUNNY     51  29  42 SW24G40   29.83F
WILLIAMS       MOSUNNY   50  23  34 SW21G31   29.86F
PRESCOTT       MOSUNNY   56  30  37 S18G29    29.89F
FLAGSTAFF      MOSUNNY   47  30  51 SW26G37   29.87F
PAYSON         CLOUDY    54  32  43 SW8       29.93F
PAGE           SUNNY     58  26  29 N7        29.70F
$$

AZZ009>014-017-182200-
NORTHEAST ARIZONA

CITY           SKY/WX    TMP DP  RH WIND       PRES   REMARKS
WINSLOW        SUNNY     64  20  18 SW26G36   29.84F
SAINT JOHNS    MOSUNNY   58  26  29 SW22G30   29.87F
WINDOW ROCK    PTSUNNY   56  27  32 SW21G29   29.86F
SHOW LOW       PTSUNNY   52  34  50 S24G31    29.94F
$$

AZZ540-542>544-546-548-182200-
GREATER PHOENIX AREA

CITY           SKY/WX    TMP DP  RH WIND       PRES   REMARKS
PHOENIX        PTSUNNY   71  44  37 SW9       29.86F
BUCKEYE        CLOUDY    68  41  37 S7        29.87F
GLENDALE       PTSUNNY   70  41  35 CALM      29.88F
LUKE AFB       MOSUNNY   69  41  36 SW8       29.85F
DEER VALLEY    CLOUDY    66  42  41 SW7       29.86F
SCOTTSDALE     CLOUDY    68  43  40 VRB7      29.88F
MESA-FALCON    PTSUNNY   70  43  37 SW10      29.88F
MESA-GATEWAY   CLOUDY    70  39  32 SW8       29.90F
CHANDLER       PTSUNNY   70  37  30 VRB6      29.87F
$$

AZZ539-553-182200-
SOUTHWEST MARICOPA COUNTY AND PINAL COUNTY

CITY           SKY/WX    TMP DP  RH WIND       PRES   REMARKS
CASA GRANDE    NOT AVBL
GILA BEND      CLOUDY    72  33  23 W7        29.86F
$$

AZZ503-504-507>509-182200-
SOUTHEAST ARIZONA

CITY           SKY/WX    TMP DP  RH WIND       PRES   REMARKS
TUCSON         CLOUDY    67  45  45 W7        29.93F
DAVIS-MONTHAN  CLOUDY    69  45  42 SW10      29.91F
RYAN FIELD     CLOUDY    68  46  45 SW9       29.93F
NOGALES        MOSUNNY   67  45  45 SW14G22   29.96F
SIERRA VISTA   CLOUDY    61  44  53 SW6       29.98F
DOUGLAS        MOSUNNY   69  43  38 SW23G33   29.94F
SAFFORD        MOSUNNY   66  45  46 NW9       29.88F
$$

AZZ532-182200-
SOUTHWEST ARIZONA

CITY           SKY/WX    TMP DP  RH WIND       PRES   REMARKS
YUMA           SUNNY     75  33  21 S13G21    29.84F
$$

CAZ041-043-047-048-061-525>527-560>570-182200-
SOUTHERN CALIFORNIA

CITY           SKY/WX    TMP DP  RH WIND       PRES   REMARKS
DOWNTOWN L.A.  SUNNY     67  41  38 CALM      29.93F
L.A. AIRPORT   MOSUNNY   62  51  67 W15       29.95F
SAN DIEGO      PTSUNNY   66  52  60 NW7       29.98F
BURBANK        SUNNY     66  38  35 SE13      29.92F
ONTARIO        MOSUNNY   67  39  35 W12G21    29.93F
RIVERSIDE      SUNNY     68  42  38 W9G17     29.92F
PALM SPRINGS   SUNNY     72  29  20 E8        29.84F
EL CENTRO NAS  SUNNY     78  33  19 S10       29.83F
IMPERIAL       SUNNY     78  35  21 S10       29.82F
BLYTHE         SUNNY     76  41  28 SW18G29   29.82F
NEEDLES        SUNNY     75  22  13 S21G26    29.78F
$$

NVZ020-UTZ003-182200-
SOUTHERN NEVADA-UTAH

CITY           SKY/WX    TMP DP  RH WIND       PRES   REMARKS
LAS VEGAS      MOSUNNY   68  22  17 S18G28    29.68F
SALT LAKE CITY CLOUDY    45  32  60 N24       29.56R
$$

NMZ009-TXZ055-182200-
NEW MEXICO-WEST TEXAS

CITY           SKY/WX    TMP DP  RH WIND       PRES   REMARKS
ALBUQUERQUE    PTSUNNY   60  38  43 S13       29.83F
EL PASO        PTSUNNY   68  46  45 W23G30    29.90F
$$


........................KEY........................
SKY/WX - SKY CONDITION/WEATHER
TMP    - TEMPERATURE IN FAHRENHEIT
DP     - DEW POINT IN FAHRENHEIT
RH     - RELATIVE HUMIDITY IN PERCENT
WIND   - DIRECTION AND SPEED IN MILES PER HOUR (MPH)
VRB    - VARIABLE WIND DIRECTION
PRES   - MEAN SEA LEVEL PRESSURE IN INCHES OF MERCURY
         F - FALLING PRESSURE   R - RISING PRESSURE
         S - STEADY PRESSURE
VSB    - VISIBILITY IN MILES
HX     - HEAT INDEX IN FAHRENHEIT
WCI    - WIND CHILL INDEX IN FAHRENHEIT
TC     - TEMPERATURE IN CELSIUS WHICH IS ALSO KNOWN AS
         TEMPERATURE IN CENTIGRADE
AFB    - AIR FORCE BASE
         LUKE AFB IS LUKE AIR FORCE BASE
         DAVIS-MONTHAN IS DAVIS-MONTHAN AIR FORCE BASE
NAS    - NAVAL AIR STATION
         EL CENTRO NAS IS EL CENTRO NAVAL AIR STATION
N/A    - NOT AVAILABLE





USA.gov is the U.S. government's official web portal to all federal, state and local government web resources and services.